EW7837 Weather Reports


time (UTC)temp
C
wind
direction
speed
KPH
gust
KPH
rain 1hr
cm
rain 24hr
cm
rain mn
cm
humidity
%
barometer
mb
20260904224522 26 259 0.0 0.0 0.00 0.00 0.00 62 1009.0
20260904223022 26 255 0.0 0.0 0.00 0.00 0.00 62 1009.2
20260904221558 26 244 0.0 0.0 0.00 0.00 0.00 63 1009.6
20260904220058 26 239 0.0 0.0 0.00 0.00 0.00 63 1010.0
20260904214558 26 247 0.0 0.0 0.00 0.00 0.00 63 1009.9
20260904213105 26 218 0.0 0.0 0.00 0.00 0.00 62 1009.5
20260904211547 26 258 0.0 0.0 0.00 0.00 0.00 63 1009.4
20260904210047 26 250 0.0 0.0 0.00 0.00 0.00 63 1009.9
20260904204534 26 248 0.0 0.0 0.00 0.00 0.00 63 1010.0
20260904203042 25 272 0.0 0.0 0.00 0.00 0.00 64 1010.0
20260904201511 26 257 0.0 0.0 0.00 0.00 0.00 64 1010.0
20260904200014 26 249 0.0 0.0 0.00 0.00 0.00 64 1009.7
20260904194509 26 270 0.0 0.0 0.00 0.00 0.00 63 1010.2
20260904193010 25 254 0.0 0.0 0.00 0.00 0.00 63 1010.4
20260904191505 26 261 0.0 0.0 0.00 0.00 0.00 63 1010.5
20260904190007 26 279 0.0 0.0 0.00 0.00 0.00 63 1010.6
20260904184606 25 269 0.0 0.0 0.00 0.00 0.00 66 1010.5
20260904183056 25 247 0.0 0.0 0.00 0.00 0.00 65 1010.7
20260904181542 25 245 0.0 0.0 0.00 0.00 0.00 64 1010.6
20260904180020 25 247 0.0 0.0 0.00 0.00 0.00 64 1010.6
20260904174515 25 254 0.0 0.0 0.00 0.00 0.00 64 1010.5
20260904173012 25 240 0.0 0.0 0.00 0.00 0.00 65 1010.6
20260904171507 25 229 0.0 0.0 0.00 0.00 0.00 66 1010.6
20260904170004 25 250 0.0 0.0 0.00 0.00 0.00 65 1010.6
20260904164600 24 250 0.0 0.0 0.00 0.00 0.00 68 1010.6
20260904163028 23 250 0.0 0.0 0.00 0.00 0.00 70 1010.3
20260904161521 22 250 0.0 0.0 0.00 0.00 0.00 72 1010.5
20260904160020 22 250 0.0 0.0 0.00 0.00 0.00 73 1010.5
20260904154511 21 250 0.0 0.0 0.00 0.00 0.00 77 1010.4
20260904153008 21 250 0.0 0.0 0.00 0.00 0.00 78 1010.0
20260904151503 20 250 0.0 0.0 0.00 0.00 0.00 83 1010.2
20260904150058 20 250 0.0 0.0 0.00 0.00 0.00 86 1010.1
20260904144554 18 250 0.0 0.0 0.00 0.00 0.00 88 1010.1
20260904143054 17 250 0.0 0.0 0.00 0.00 0.00 88 1010.1
20260904141554 17 250 0.0 0.0 0.00 0.00 0.00 88 1009.6
20260904140027 17 250 0.0 0.0 0.00 0.00 0.00 88 1009.8
20260904134516 17 250 0.0 0.0 0.00 0.00 0.00 88 1009.7
20260904133013 17 250 0.0 0.0 0.00 0.00 0.00 88 1009.6
20260904131513 17 250 0.0 0.0 0.00 0.00 0.00 88 1009.5
20260904130025 17 250 0.0 0.0 0.00 0.00 0.00 88 1009.0
20260904124511 17 250 0.0 0.0 0.00 0.00 0.00 88 1009.4
20260904123003 17 250 0.0 0.0 0.00 0.00 0.00 88 1009.2
20260904121502 17 250 0.0 0.0 0.00 0.00 0.00 88 1009.1
20260904120001 17 250 0.0 0.0 0.00 0.00 0.00 87 1009.4
20260904114503 17 250 0.0 0.0 0.00 0.00 0.00 87 1009.1
20260904113041 17 250 0.0 0.0 0.00 0.00 0.00 86 1009.5
20260904111542 17 250 0.0 0.0 0.00 0.00 0.00 85 1009.5
20260904110040 18 250 0.0 0.0 0.00 0.00 0.00 85 1009.3
20260904104530 18 250 0.0 0.0 0.00 0.00 0.00 85 1009.2
20260904103027 19 250 0.0 0.0 0.00 0.00 0.00 85 1009.0
20260904101527 19 250 0.0 0.0 0.00 0.00 0.00 86 1009.2
20260904100023 19 250 0.0 0.0 0.00 0.00 0.00 86 1009.3
20260904094522 19 250 0.0 0.0 0.00 0.00 0.00 86 1009.2
20260904093023 18 250 0.0 0.0 0.00 0.00 0.00 86 1008.9
20260904091522 18 250 0.0 0.0 0.00 0.00 0.00 87 1009.0
20260904090019 18 250 0.0 0.0 0.00 0.00 0.00 87 1009.4
20260904084519 18 250 0.0 0.0 0.00 0.00 0.00 87 1009.5
20260904083019 18 250 0.0 0.0 0.00 0.00 0.00 87 1009.5
20260904081518 18 250 0.0 0.0 0.00 0.00 0.00 87 1009.3
20260904080016 17 250 0.0 0.0 0.00 0.00 0.00 87 1009.4
20260904074516 17 250 0.0 0.0 0.00 0.00 0.00 87 1009.8
20260904073015 17 250 0.0 0.0 0.00 0.00 0.00 87 1009.8
20260904071514 17 250 0.0 0.0 0.00 0.00 0.00 86 1009.6
20260904070050 17 250 0.0 0.0 0.00 0.00 0.00 86 1009.4
20260904064550 17 250 0.0 0.0 0.00 0.00 0.00 86 1009.5
20260904063055 17 250 0.0 0.0 0.00 0.00 0.00 86 1009.6
20260904061539 18 250 0.0 0.0 0.00 0.00 0.00 86 1009.5
20260904060039 18 250 0.0 0.0 0.00 0.00 0.00 85 1009.5
20260904054533 18 250 0.0 0.0 0.00 0.00 0.00 85 1009.5
20260904053024 18 250 0.0 0.0 0.00 0.00 0.00 85 1009.2
20260904051609 18 250 0.0 0.0 0.00 0.00 0.00 84 1009.6
20260904050050 19 250 0.0 0.0 0.00 0.00 0.00 83 1009.5
20260904044549 19 250 0.0 0.0 0.00 0.00 0.00 83 1009.5
20260904043046 20 250 0.0 0.0 0.00 0.00 0.00 82 1009.5
20260904041544 20 250 0.0 0.0 0.00 0.00 0.00 81 1009.0
20260904040044 21 250 0.0 0.0 0.00 0.00 0.00 81 1009.0
20260904034538 21 250 0.0 0.0 0.00 0.00 0.00 82 1009.3
20260904033036 21 250 0.0 0.0 0.00 0.00 0.00 81 1009.2
20260904031534 21 250 0.0 0.0 0.00 0.00 0.00 81 1009.0
20260904030104 21 250 0.0 0.0 0.00 0.00 0.00 80 1008.7
20260904024534 21 250 0.0 0.0 0.00 0.00 0.00 80 1008.7
20260904023034 21 250 0.0 0.0 0.00 0.00 0.00 79 1009.0
20260904021531 22 250 0.0 0.0 0.00 0.00 0.00 78 1009.0
20260904020025 22 250 0.0 0.0 0.00 0.00 0.00 76 1009.0
20260904014526 23 250 0.0 0.0 0.00 0.00 0.00 73 1009.0
20260904013128 23 250 0.0 0.0 0.00 0.00 0.00 72 1008.8
20260904011531 23 250 0.0 0.0 0.00 0.00 0.00 71 1009.0
20260904010038 23 250 0.0 0.0 0.00 0.00 0.00 71 1009.3
20260904004524 24 257 0.0 0.0 0.00 0.00 0.00 71 1009.4
20260904003122 24 275 0.0 0.0 0.00 0.00 0.00 71 1009.3
20260904001527 24 258 0.0 0.0 0.00 0.00 0.00 71 1009.1
20260904000032 24 231 0.0 0.0 0.00 0.00 0.00 70 1008.9
20260903234526 25 265 0.0 0.0 0.00 0.00 0.00 70 1009.0
20260903233026 25 254 0.0 0.0 0.00 0.00 0.00 69 1009.5
20260903231524 25 267 0.0 0.0 0.00 0.00 0.00 67 1009.6
20260903230024 25 178 0.0 0.0 0.00 0.00 0.00 66 1009.6